Flag for Germany Weather past 2 weeks in Strausberg, Brandenburg, Germany

Now
50 °F

Passing clouds.


Feels Like: 43 °F
Forecast: 42 / 48 °F
Wind: 22 mph from West

Location: Berlin-Schoenefeld

Current Time: Dec 23, 2014 at 4:13:47 AM

Latest Report: Dec 23, 2014 at 3:50 AM


Visibility: N/A

Pressure: 29.83 "Hg

Humidity: 94%

Dew point: 48 °F

Location of StrausbergLocation

Historic Weather in Strausberg — Graph

°F

Strausberg temperature yesterday

Maximum temperature yesterday: 52 °F (at 3:50 PM)
Minimum temperature yesterday: 43 °F (at 12:50 AM)
Average temperature yesterday: 48 °F

Past Weeks' High & Low Weather Summary

 TemperatureHumidityPressure
High54 °F (Dec 19, 1:20 AM)100% (Dec 8, 3:20 AM)30.39 "Hg (Dec 8, 3:20 AM)
Low27 °F (Dec 9, 5:20 AM)67% (Dec 12, 7:20 PM)29.39 "Hg (Dec 12, 7:20 PM)
Average40 °F90%29.88 "Hg
* Reported Dec 8 2:20 AM — Dec 23 2:50 AM, Strausberg, Weather by CustomWeather, © 2014

Note: Actual official high and low records may vary slightly from our data, if they occured in-between our weather recording intervals... More about our weather records

Advertising

Strausberg weather history for previous 24 hours

 ConditionsComfort  
Time TempWeatherWind HumidityBarometerVisibility
2:50 AM
Dec 23
50 °FPassing clouds.22 mph94%29.80 "HgN/A
2:20 AM50 °FPassing clouds.22 mph100%29.80 "HgN/A
1:50 AM50 °FLight rain. Partly cloudy.24 mph100%29.80 "HgN/A
1:20 AM48 °FLight rain. Passing clouds.21 mph100%29.80 "HgN/A
12:50 AM48 °FLight rain. Passing clouds.22 mph100%29.80 "HgN/A
12:20 AM48 °FLight rain. Passing clouds.22 mph100%29.80 "HgN/A
11:20 PM
Dec 22
48 °FRain. Passing clouds.21 mph100%29.83 "Hg4 mi
10:50 PM48 °FPassing clouds.18 mph100%29.83 "Hg3 mi
10:20 PM48 °FPartly cloudy.18 mph100%29.83 "Hg3 mi
9:50 PM48 °FPassing clouds.20 mph94%29.80 "HgN/A
9:20 PM48 °FPartly cloudy.18 mph100%29.80 "HgN/A
8:50 PM48 °FPartly cloudy.21 mph100%29.80 "Hg3 mi
8:20 PM48 °FPassing clouds.22 mph100%29.83 "Hg4 mi
7:50 PM48 °FPartly cloudy.23 mph94%29.83 "Hg5 mi
7:20 PM48 °FLight rain. Partly cloudy.23 mph94%29.80 "HgN/A
6:50 PM48 °FPartly cloudy.21 mph94%29.80 "HgN/A
6:20 PM50 °FPartly cloudy.24 mph94%29.80 "Hg6 mi
5:50 PM50 °FPassing clouds.23 mph88%29.80 "HgN/A
5:20 PM50 °FLight rain. Passing clouds.23 mph88%29.80 "HgN/A
4:50 PM50 °FLight rain. Passing clouds.24 mph88%29.77 "HgN/A
4:20 PM50 °FLight rain. Passing clouds.26 mph88%29.77 "HgN/A
3:50 PM52 °FPartly sunny.31 mph82%29.74 "HgN/A
3:20 PM50 °FPartly sunny.28 mph88%29.77 "HgN/A
2:50 PM50 °FDrizzle. Broken clouds.29 mph88%29.77 "HgN/A
2:20 PM48 °FDrizzle. Broken clouds.25 mph94%29.77 "HgN/A
1:50 PM50 °FDrizzle. Partly sunny.28 mph88%29.77 "Hg6 mi
1:20 PM48 °FLight rain. Partly sunny.22 mph87%29.77 "HgN/A
12:50 PM50 °FPartly sunny.22 mph82%29.77 "HgN/A
12:20 PM48 °FLight rain. Broken clouds.24 mph87%29.77 "HgN/A
11:50 AM48 °FLight rain. Partly sunny.23 mph87%29.80 "HgN/A
11:20 AM48 °FLight rain. Broken clouds.22 mph87%29.80 "HgN/A
10:50 AM48 °FLight rain. Broken clouds.21 mph87%29.80 "HgN/A
10:20 AM48 °FLight rain. Broken clouds.26 mph87%29.83 "HgN/A
9:50 AM48 °FPartly sunny.26 mph94%29.83 "HgN/A
9:20 AM48 °FLight rain. Partly sunny.26 mph87%29.83 "HgN/A
8:50 AM46 °FLight rain. Broken clouds.23 mph93%29.83 "HgN/A
8:20 AM46 °FDrizzle. Broken clouds.23 mph93%29.83 "Hg4 mi
7:50 AM46 °FLight rain. Partly cloudy.22 mph93%29.83 "HgN/A
7:20 AM46 °FLight rain. Passing clouds.24 mph93%29.83 "HgN/A
6:20 AM46 °FLight rain. Partly cloudy.24 mph93%29.83 "HgN/A
5:50 AM46 °FPassing clouds.24 mph93%29.83 "HgN/A
5:20 AM45 °FPassing clouds.24 mph100%29.83 "HgN/A
4:20 AM46 °FPassing clouds.24 mph87%29.86 "HgN/A
Weather by CustomWeather, © 2014

See weather overviewHow to use our weather pages